Regional Weather Roundup
Issued by NWS Memphis, TN

Home | Current Version | Previous Version | Text Only | Print | Product List | Glossary On
Versions: 1 2 3 4 5 6 7 8 9 10 11 12 13 14 15 16 17 18 19 20 21 22 23 24 25 26 27 28 29 30 31 32 33 34 35 36 37 38 39 40 41 42 43 44 45 46 47 48 49 50
000
ASUS44 KMEG 301110
RWRMEG
MEMPHIS CWA HOURLY WEATHER ROUNDUP
NATIONAL WEATHER SERVICE MEMPHIS TN
600 AM CDT SAT JUL 30 2016

...WEST TENNESSEE...

CITY           SKY/WX    TMP DP  RH WIND       PRES   REMARKS
MEMPHIS INTL   CLOUDY    74  71  91 CALM      29.98R
NWS MEMPHIS      N/A     71 N/A N/A MISG        N/A
JACKSON        CLOUDY    72  71  97 SW3       30.00R
LEXINGTON      CLOUDY    70  70 100 S3        30.00R
DYERSBURG      CLEAR    N/A N/A N/A MISG        N/A
UNION CITY     CLOUDY    72  72 100 CALM      29.97R
PARIS          CLOUDY    70  70 100 SW6       29.99R


...EASTERN ARKANSAS...

CITY           SKY/WX    TMP DP  RH WIND       PRES   REMARKS
JONESBORO      CLOUDY    72  70  93 CALM      29.98R
WEST MEMPHIS   CLOUDY    72  71  97 N3        29.97R
BATESVILLE     PTCLDY    68  66  94 CALM      29.99R
NEWPORT        FOG       71  71 100 CALM      29.99R VSB 1/4
WALNUT RIDGE   PTCLDY    70  68  94 S3        29.97R
BLYTHEVILLE    MOCLDY    72  71  97 SW6       29.99R
SEARCY         FOG       72  72 100 CALM      30.08R VSB 1/4
STUTTGART      CLEAR     73  68  83 W3        29.98R
PINE BLUFF     CLEAR     71  70  96 NW3       29.98R
MONTICELLO     CLOUDY    75  72  90 S3        29.98R


...NORTH MISSISSIPPI...

CITY           SKY/WX    TMP DP  RH WIND       PRES   REMARKS
TUPELO         PTCLDY    73  70  90 CALM      29.99R
OXFORD         CLEAR     70  68  94 CALM      30.01R
BATESVILLE     CLOUDY    71  69  95 CALM      29.99R FOG
TUNICA         CLOUDY    72  70  94 CALM      29.98S
CLARKSDALE     CLEAR     73  73 100 CALM      29.97S
GREENWOOD      PTCLDY    75  73  93 S6        29.99R
COLUMBUS       CLEAR     75  75 100 SW5       29.99R
GOLDEN TRIANGL CLEAR     77  70  78 CALM      29.99R FOG


...SOUTHEAST MISSOURI...

CITY           SKY/WX    TMP DP  RH WIND       PRES   REMARKS
KENNETT        CLOUDY    72  72 100 SW5       29.97R
WEST PLAINS    CLOUDY    68  66  93 CALM      30.02R
POPLAR BLUFF   CLOUDY    71  70  96 CALM      29.96R
CAPE GIRARDEAU FOG       70  69  97 SW5       29.95R VSB 1/2


...NORTHWEST ALABAMA...

CITY           SKY/WX    TMP DP  RH WIND       PRES   REMARKS
MUSCLE SHOALS  PTCLDY    71  68  90 CALM      30.02R


...MIDDLE TENNESSEE...

CITY           SKY/WX    TMP DP  RH WIND       PRES   REMARKS
NASHVILLE      CLOUDY    74  71  91 CALM      30.00R
CLARKSVILLE    MOCLDY    71  69  93 S3        29.98R
COLUMBIA       PTCLDY   N/A N/A N/A SW3       30.00S


...WESTERN KENTUCKY...

CITY           SKY/WX    TMP DP  RH WIND       PRES   REMARKS
PADUCAH        PTCLDY    70  68  93 SW3       29.95R FOG
FORT CAMPBELL  CLEAR     71  71  97 S1        29.97R


...CENTRAL ARKANSAS...

CITY           SKY/WX    TMP DP  RH WIND       PRES   REMARKS
LITTLE ROCK    MOCLDY    74  71  91 SW7       29.98R


SKY/WX REPORTED AS FAIR MEANS FEW OR NO CLOUDS BELOW
12 THOUSAND FEET.





USA.gov is the U.S. government's official web portal to all federal, state and local government web resources and services.